Location: Observatory Park - Geauga Park District
(41.5832°N, 81.0716°W)
Time: 06:30:04
(UTC-04:00)

Tiangong - Pass Details

Date: 30 September 2021
Orbit: 382 x 385 km, 41.5° (Epoch: 17 October)

Event Time Altitude Azimuth Distance (km) Brightness Sun altitude
Exits shadow 05:23:22 38° 107° (ESE) 592 2.4 -22.4°
Drops below altitude 10° 05:25:31 10° 86° (E) 1,373 4.9 -22.1°
Sets 05:27:40 0° 81° (E) 2,247 6.4 -21.7°
